| time (UTC) | temp C | wind direction | speed KPH | gust KPH | rain 1hr cm | rain 24hr cm | rain mn cm | humidity % | barometer mb |
| 20260506114051 | 7 | 289 | 4.8 | 6.4 | 0.00 | 0.00 | 0.00 | 88 | 1011.0 |
| 20260506113036 | 7 | 258 | 1.6 | 4.8 | 0.00 | 0.00 | 0.00 | 89 | 1011.0 |
| 20260506112051 | 7 | 305 | 1.6 | 4.8 | 0.00 | 0.00 | 0.00 | 92 | 1010.9 |
| 20260506111054 | 7 | 222 | 1.6 | 4.8 | 0.00 | 0.00 | 0.00 | 92 | 1010.8 |
| 20260506110031 | 7 | 213 | 1.6 | 3.2 | 0.00 | 0.00 | 0.00 | 92 | 1010.7 |
| 20260506105038 | 7 | 210 | 1.6 | 3.2 | 0.00 | 0.00 | 0.00 | 90 | 1010.4 |
| 20260506104017 | 7 | 213 | 1.6 | 3.2 | 0.00 | 0.00 | 0.00 | 89 | 1010.3 |
| 20260506103032 | 8 | 207 | 3.2 | 6.4 | 0.00 | 0.00 | 0.00 | 89 | 1010.2 |
| 20260506102019 | 8 | 212 | 3.2 | 4.8 | 0.00 | 0.00 | 0.00 | 87 | 1010.1 |
| 20260506101037 | 8 | 216 | 3.2 | 4.8 | 0.00 | 0.00 | 0.00 | 84 | 1010.2 |
| 20260506100018 | 8 | 222 | 3.2 | 6.4 | 0.00 | 0.00 | 0.00 | 81 | 1010.1 |
| 20260506095018 | 9 | 216 | 3.2 | 6.4 | 0.00 | 0.00 | 0.00 | 78 | 1010.1 |
| 20260506094018 | 9 | 214 | 3.2 | 8.0 | 0.00 | 0.00 | 0.00 | 76 | 1010.1 |
| 20260506093018 | 9 | 253 | 1.6 | 4.8 | 0.00 | 0.00 | 0.00 | 76 | 1009.8 |
| 20260506092018 | 9 | 222 | 1.6 | 4.8 | 0.00 | 0.00 | 0.00 | 77 | 1009.8 |
| 20260506091019 | 9 | 234 | 3.2 | 6.4 | 0.00 | 0.00 | 0.00 | 76 | 1009.7 |
| 20260506090020 | 9 | 237 | 3.2 | 8.0 | 0.00 | 0.00 | 0.00 | 77 | 1009.4 |
| 20260506085019 | 9 | 226 | 3.2 | 6.4 | 0.00 | 0.00 | 0.00 | 77 | 1009.6 |
| 20260506084100 | 9 | 253 | 3.2 | 6.4 | 0.00 | 0.00 | 0.00 | 76 | 1009.7 |
| 20260506083041 | 9 | 243 | 3.2 | 8.0 | 0.00 | 0.00 | 0.00 | 76 | 1009.9 |
| 20260506082019 | 9 | 254 | 3.2 | 6.4 | 0.00 | 0.00 | 0.00 | 76 | 1009.8 |
| 20260506081039 | 9 | 246 | 3.2 | 8.0 | 0.00 | 0.00 | 0.00 | 76 | 1009.8 |
| 20260506073021 | 10 | 238 | 4.8 | 12.9 | 0.00 | 0.00 | 0.00 | 76 | 1009.8 |
| 20260506072020 | 10 | 222 | 3.2 | 8.0 | 0.00 | 0.00 | 0.00 | 76 | 1009.6 |
| 20260506071020 | 10 | 239 | 3.2 | 6.4 | 0.00 | 0.00 | 0.00 | 76 | 1009.5 |
| 20260506062021 | 10 | 210 | 4.8 | 11.3 | 0.00 | 0.00 | 0.00 | 77 | 1009.2 |
| 20260506061021 | 10 | 220 | 4.8 | 8.0 | 0.00 | 0.00 | 0.00 | 78 | 1009.2 |
| 20260506051042 | 10 | 210 | 6.4 | 14.5 | 0.00 | 0.00 | 0.00 | 80 | 1009.2 |
| 20260506045022 | 11 | 206 | 4.8 | 12.9 | 0.00 | 0.00 | 0.00 | 81 | 1009.0 |
| 20260506044044 | 11 | 200 | 6.4 | 11.3 | 0.00 | 0.00 | 0.00 | 80 | 1008.9 |
| 20260506043024 | 11 | 198 | 4.8 | 11.3 | 0.00 | 0.00 | 0.00 | 80 | 1008.6 |
| 20260506042017 | 11 | 192 | 4.8 | 8.0 | 0.00 | 0.00 | 0.00 | 80 | 1008.4 |
| 20260506041043 | 11 | 199 | 4.8 | 14.5 | 0.00 | 0.00 | 0.00 | 80 | 1008.3 |
| 20260506040018 | 11 | 203 | 4.8 | 12.9 | 0.00 | 0.00 | 0.00 | 79 | 1008.1 |
| 20260506035017 | 11 | 195 | 4.8 | 8.0 | 0.00 | 0.00 | 0.00 | 78 | 1007.9 |
| 20260506034017 | 11 | 196 | 4.8 | 11.3 | 0.00 | 0.00 | 0.00 | 77 | 1007.8 |
| 20260506033018 | 11 | 198 | 6.4 | 14.5 | 0.00 | 0.00 | 0.00 | 77 | 1007.5 |
| 20260506032018 | 11 | 211 | 6.4 | 9.7 | 0.00 | 0.00 | 0.00 | 77 | 1007.5 |
| 20260506031019 | 11 | 211 | 6.4 | 12.9 | 0.00 | 0.00 | 0.00 | 77 | 1007.4 |
| 20260506030018 | 11 | 208 | 8.0 | 14.5 | 0.00 | 0.00 | 0.00 | 76 | 1007.4 |
| 20260506025020 | 12 | 232 | 6.4 | 12.9 | 0.00 | 0.00 | 0.00 | 75 | 1007.5 |
| 20260506024019 | 12 | 223 | 6.4 | 12.9 | 0.00 | 0.00 | 0.00 | 74 | 1007.2 |
| 20260506023019 | 12 | 218 | 6.4 | 12.9 | 0.00 | 0.00 | 0.00 | 73 | 1007.4 |
| 20260506022039 | 12 | 237 | 6.4 | 14.5 | 0.00 | 0.00 | 0.00 | 73 | 1007.6 |
| 20260506021019 | 13 | 225 | 6.4 | 14.5 | 0.00 | 0.00 | 0.00 | 73 | 1007.5 |
| 20260506020017 | 13 | 228 | 6.4 | 16.1 | 0.00 | 0.00 | 0.00 | 72 | 1007.2 |
| 20260506015021 | 13 | 270 | 6.4 | 14.5 | 0.00 | 0.00 | 0.00 | 72 | 1007.1 |
| 20260506014018 | 13 | 245 | 4.8 | 12.9 | 0.00 | 0.00 | 0.00 | 72 | 1006.9 |
| 20260506013018 | 13 | 230 | 6.4 | 14.5 | 0.00 | 0.00 | 0.00 | 72 | 1006.8 |
| 20260506012021 | 13 | 225 | 6.4 | 14.5 | 0.00 | 0.00 | 0.00 | 73 | 1006.6 |
| 20260506011039 | 14 | 271 | 4.8 | 14.5 | 0.00 | 0.00 | 0.00 | 73 | 1006.5 |
| 20260506010018 | 15 | 271 | 3.2 | 9.7 | 0.00 | 0.00 | 0.00 | 70 | 1006.1 |
| 20260506005018 | 15 | 298 | 4.8 | 17.7 | 0.00 | 0.00 | 0.00 | 64 | 1005.6 |
| 20260506004018 | 16 | 298 | 4.8 | 14.5 | 0.00 | 0.00 | 0.00 | 58 | 1005.3 |
| 20260506003019 | 16 | 271 | 4.8 | 14.5 | 0.00 | 0.00 | 0.00 | 57 | 1005.1 |
| 20260506002023 | 16 | 302 | 6.4 | 12.9 | 0.00 | 0.00 | 0.00 | 56 | 1004.9 |
| 20260506001020 | 17 | 293 | 4.8 | 16.1 | 0.00 | 0.00 | 0.00 | 57 | 1004.7 |
| 20260506000020 | 17 | 317 | 6.4 | 16.1 | 0.00 | 0.00 | 0.00 | 57 | 1004.4 |
| 20260505235019 | 18 | 303 | 4.8 | 14.5 | 0.00 | 0.00 | 0.00 | 61 | 1004.3 |
| 20260505234039 | 18 | 265 | 3.2 | 9.7 | 0.00 | 0.00 | 0.00 | 57 | 1003.7 |
| 20260505233039 | 18 | 281 | 4.8 | 12.9 | 0.00 | 0.00 | 0.00 | 57 | 1003.4 |
| 20260505232038 | 18 | 296 | 4.8 | 12.9 | 0.00 | 0.00 | 0.00 | 57 | 1003.3 |
| 20260505231019 | 18 | 282 | 8.0 | 20.9 | 0.00 | 0.00 | 0.00 | 57 | 1003.3 |
| 20260505230041 | 18 | 257 | 6.4 | 33.8 | 0.00 | 0.00 | 0.00 | 56 | 1003.1 |
| 20260505225017 | 19 | 254 | 6.4 | 17.7 | 0.00 | 0.00 | 0.00 | 57 | 1002.9 |
| 20260505224020 | 19 | 250 | 6.4 | 16.1 | 0.00 | 0.00 | 0.00 | 58 | 1002.8 |
| 20260505223040 | 19 | 275 | 8.0 | 27.4 | 0.00 | 0.00 | 0.00 | 59 | 1002.6 |
| 20260505222017 | 19 | 259 | 6.4 | 14.5 | 0.00 | 0.00 | 0.00 | 59 | 1002.4 |
| 20260505221018 | 19 | 227 | 4.8 | 17.7 | 0.00 | 0.00 | 0.00 | 58 | 1002.2 |
| 20260505220021 | 19 | 265 | 4.8 | 14.5 | 0.00 | 0.00 | 0.00 | 57 | 1002.2 |
| 20260505215018 | 20 | 244 | 4.8 | 12.9 | 0.00 | 0.00 | 0.00 | 56 | 1001.9 |
| 20260505214018 | 20 | 245 | 6.4 | 14.5 | 0.00 | 0.00 | 0.00 | 59 | 1001.8 |
| 20260505213021 | 19 | 283 | 6.4 | 17.7 | 0.00 | 0.00 | 0.00 | 64 | 1001.6 |
| 20260505212040 | 19 | 267 | 4.8 | 16.1 | 0.00 | 0.00 | 0.00 | 64 | 1001.4 |
| 20260505211019 | 20 | 300 | 8.0 | 16.1 | 0.00 | 0.00 | 0.00 | 65 | 1001.4 |
| 20260505210019 | 20 | 302 | 8.0 | 19.3 | 0.00 | 0.00 | 0.00 | 64 | 1001.1 |
| 20260505205019 | 21 | 203 | 4.8 | 14.5 | 0.00 | 0.00 | 0.00 | 58 | 1000.6 |
| 20260505204039 | 21 | 204 | 6.4 | 16.1 | 0.00 | 0.00 | 0.00 | 58 | 1000.4 |
| 20260505203020 | 21 | 185 | 6.4 | 16.1 | 0.00 | 0.00 | 0.00 | 59 | 1000.2 |
| 20260505202118 | 21 | 195 | 8.0 | 14.5 | 0.00 | 0.00 | 0.00 | 59 | 1000.2 |
| 20260505201020 | 21 | 185 | 8.0 | 16.1 | 0.00 | 0.00 | 0.00 | 61 | 1000.0 |
| 20260505200020 | 21 | 189 | 4.8 | 14.5 | 0.00 | 0.00 | 0.00 | 65 | 1000.1 |
| 20260505195017 | 20 | 190 | 8.0 | 17.7 | 0.00 | 0.00 | 0.00 | 66 | 1000.2 |
| 20260505194020 | 20 | 187 | 8.0 | 14.5 | 0.00 | 0.00 | 0.00 | 68 | 1000.1 |
| 20260505193017 | 20 | 180 | 6.4 | 16.1 | 0.00 | 0.00 | 0.00 | 68 | 1000.1 |
| 20260505192017 | 20 | 194 | 9.7 | 22.5 | 0.00 | 0.00 | 0.00 | 68 | 1000.0 |
| 20260505191018 | 21 | 182 | 11.3 | 25.7 | 0.00 | 0.00 | 0.00 | 64 | 999.9 |
| 20260505190018 | 21 | 191 | 8.0 | 16.1 | 0.00 | 0.00 | 0.00 | 59 | 999.8 |
| 20260505185018 | 21 | 194 | 6.4 | 16.1 | 0.00 | 0.00 | 0.00 | 61 | 999.9 |
| 20260505184042 | 20 | 192 | 8.0 | 16.1 | 0.00 | 0.00 | 0.00 | 63 | 1000.1 |
| 20260505183021 | 20 | 191 | 6.4 | 16.1 | 0.00 | 0.00 | 0.00 | 64 | 1000.1 |
| 20260505182018 | 20 | 219 | 6.4 | 19.3 | 0.00 | 0.00 | 0.00 | 63 | 1000.4 |
| 20260505181018 | 20 | 224 | 8.0 | 14.5 | 0.00 | 0.00 | 0.00 | 62 | 1000.3 |
| 20260505180019 | 21 | 210 | 9.7 | 20.9 | 0.00 | 0.00 | 0.00 | 60 | 1000.3 |
| 20260505175020 | 21 | 206 | 8.0 | 17.7 | 0.00 | 0.00 | 0.00 | 60 | 1000.2 |
| 20260505174019 | 21 | 233 | 8.0 | 17.7 | 0.00 | 0.00 | 0.00 | 60 | 1000.1 |
| 20260505173016 | 21 | 194 | 6.4 | 19.3 | 0.00 | 0.00 | 0.00 | 61 | 1000.0 |
| 20260505172019 | 21 | 195 | 4.8 | 12.9 | 0.00 | 0.00 | 0.00 | 62 | 999.8 |
| 20260505171020 | 20 | 179 | 4.8 | 11.3 | 0.00 | 0.00 | 0.00 | 64 | 1000.0 |
| 20260505170017 | 20 | 189 | 4.8 | 14.5 | 0.00 | 0.00 | 0.00 | 64 | 1000.0 |
| 20260505165019 | 20 | 198 | 4.8 | 16.1 | 0.00 | 0.00 | 0.00 | 65 | 1000.1 |
| 20260505164020 | 20 | 188 | 4.8 | 14.5 | 0.00 | 0.00 | 0.00 | 68 | 1000.1 |
| 20260505163037 | 20 | 189 | 6.4 | 14.5 | 0.00 | 0.00 | 0.00 | 69 | 1000.0 |
| 20260505162017 | 20 | 186 | 4.8 | 16.1 | 0.00 | 0.00 | 0.00 | 64 | 1000.0 |
| 20260505161041 | 21 | 190 | 4.8 | 11.3 | 0.00 | 0.00 | 0.00 | 65 | 1000.1 |
| 20260505153018 | 20 | 193 | 4.8 | 12.9 | 0.00 | 0.00 | 0.00 | 66 | 1000.4 |
| 20260505152018 | 20 | 190 | 6.4 | 12.9 | 0.00 | 0.00 | 0.00 | 68 | 1000.4 |
| 20260505151019 | 19 | 185 | 8.0 | 16.1 | 0.00 | 0.00 | 0.00 | 68 | 1000.4 |
| 20260505125021 | 12 | 190 | 6.4 | 12.9 | 0.00 | 0.00 | 0.00 | 87 | 1001.6 |
| 20260505124021 | 12 | 192 | 6.4 | 9.7 | 0.00 | 0.00 | 0.00 | 89 | 1001.6 |
| 20260505123021 | 12 | 179 | 6.4 | 12.9 | 0.00 | 0.00 | 0.00 | 89 | 1001.8 |
| 20260505122021 | 13 | 191 | 8.0 | 12.9 | 0.00 | 0.00 | 0.00 | 85 | 1002.0 |
| 20260505121043 | 13 | 201 | 4.8 | 14.5 | 0.00 | 0.00 | 0.00 | 78 | 1002.3 |
| 20260505120022 | 14 | 195 | 4.8 | 9.7 | 0.00 | 0.00 | 0.00 | 75 | 1002.2 |
| 20260505115023 | 15 | 183 | 8.0 | 12.9 | 0.00 | 0.00 | 0.00 | 67 | 1002.0 |